FW4331 Weather Reports


Display with metric or nautical units.
time (UTC)temp
F
wind
direction
speed
MPH
gust
MPH
rain 1hr
in
rain 24hr
in
rain mn
in
humidity
%
barometer
mb
20260509160028 67 209 4.0 10.0 0.00 0.00 0.00 44 1008.9
20260509154525 67 230 4.0 9.0 0.00 0.00 0.00 42 1008.9
20260509153022 67 153 5.0 11.0 0.00 0.00 0.00 42 1009.2
20260509151518 66 270 4.0 8.0 0.00 0.00 0.00 43 1009.1
20260509150017 66 280 2.0 7.0 0.00 0.00 0.00 44 1009.2
20260509144525 64 240 4.0 8.0 0.00 0.00 0.00 43 1009.3
20260509143008 63 226 4.0 9.0 0.00 0.00 0.00 45 1009.6
20260509141507 62 139 2.0 6.0 0.00 0.00 0.00 46 1009.7
20260509140001 61 176 4.0 9.0 0.00 0.00 0.00 46 1009.8
20260509134601 60 250 2.0 6.0 0.00 0.00 0.00 47 1009.7
20260509133051 58 278 0.0 4.0 0.00 0.00 0.00 49 1009.8
20260509131547 57 246 0.0 6.0 0.00 0.00 0.00 49 1009.8
20260509130045 57 265 0.0 5.0 0.00 0.00 0.00 49 1009.8
20260509124639 57 218 0.0 7.0 0.00 0.00 0.00 49 1009.8
20260509123036 56 229 1.0 4.0 0.00 0.00 0.00 50 1010.0
20260509121537 56 209 0.0 2.0 0.00 0.00 0.00 50 1009.9
20260509120031 56 238 0.0 2.0 0.00 0.00 0.00 49 1010.0
20260509114529 56 220 0.0 2.0 0.00 0.00 0.00 49 1009.8
20260509113028 55 223 0.0 4.0 0.00 0.00 0.00 48 1009.8
20260509111525 55 229 0.0 2.0 0.00 0.00 0.00 49 1009.7
20260509110020 0 0.0 0.0 0.00 0.00 0.00 1009.6
20260509104525 0 0.0 0.0 0.00 0.00 0.00 1009.6
20260509103009 0 0.0 0.0 0.00 0.00 0.00 1009.4
20260509101504 0 212 0.0 3.0 0.00 0.00 0.00 1009.4
20260509100004 56 247 1.0 4.0 0.00 0.00 0.00 46 1009.3
20260509094600 56 251 0.0 2.0 0.00 0.00 0.00 46 1009.3
20260509094500 56 259 0.0 2.0 0.00 0.00 0.00 46 1009.3
20260509093059 56 250 1.0 4.0 0.00 0.00 0.00 46 1009.4
20260509091555 55 253 0.0 4.0 0.00 0.00 0.00 46 1009.6
20260509090052 55 220 1.0 5.0 0.00 0.00 0.00 46 1009.7
20260509084554 55 219 1.0 6.0 0.00 0.00 0.00 47 1009.7
20260509083046 55 289 1.0 7.0 0.00 0.00 0.00 46 1009.7
20260509081545 55 200 1.0 7.0 0.00 0.00 0.00 46 1009.8
20260509080051 55 180 1.0 7.0 0.00 0.00 0.00 47 1010.1
20260509074539 55 174 1.0 6.0 0.00 0.00 0.00 47 1010.2
20260509073039 55 175 2.0 4.0 0.00 0.00 0.00 46 1010.2
20260509071533 55 200 0.0 5.0 0.00 0.00 0.00 45 1010.2
20260509070031 56 217 1.0 5.0 0.00 0.00 0.00 44 1010.1
20260509064528 56 196 1.0 7.0 0.00 0.00 0.00 44 1010.1
20260509063026 56 210 2.0 5.0 0.00 0.00 0.00 44 1010.3
20260509061524 56 231 3.0 6.0 0.00 0.00 0.00 44 1010.4
20260509060024 55 246 1.0 5.0 0.00 0.00 0.00 45 1010.6
20260509054519 55 229 0.0 1.0 0.00 0.00 0.00 45 1010.6
20260509053028 56 222 0.0 3.0 0.00 0.00 0.00 44 1010.5
20260509051521 56 257 0.0 3.0 0.00 0.00 0.00 44 1010.7
20260509050016 56 274 2.0 6.0 0.00 0.00 0.00 43 1010.6
20260509044509 56 228 0.0 5.0 0.00 0.00 0.00 43 1010.4
20260509043009 56 233 0.0 3.0 0.00 0.00 0.00 43 1010.6
20260509041509 56 239 0.0 4.0 0.00 0.00 0.00 43 1010.7
20260509040101 56 224 1.0 3.0 0.00 0.00 0.00 43 1010.8
20260509034556 56 247 0.0 3.0 0.00 0.00 0.00 43 1010.7
20260509033100 56 242 0.0 1.0 0.00 0.00 0.00 44 1010.7
20260509031551 56 221 0.0 1.0 0.00 0.00 0.00 43 1010.8
20260509030051 57 238 0.0 1.0 0.00 0.00 0.00 43 1011.0
20260509024548 57 236 0.0 3.0 0.00 0.00 0.00 42 1011.0
20260509023046 58 238 0.0 1.0 0.00 0.00 0.00 42 1010.9
20260509021544 58 222 0.0 1.0 0.00 0.00 0.00 42 1010.9
20260509020043 58 229 0.0 2.0 0.00 0.00 0.00 41 1010.8
20260509014545 59 207 0.0 1.0 0.00 0.00 0.00 39 1010.6
20260509013043 60 148 0.0 1.0 0.00 0.00 0.00 38 1010.6
20260509011541 60 236 0.0 0.0 0.00 0.00 0.00 37 1010.6
20260509010035 62 236 0.0 0.0 0.00 0.00 0.00 35 1010.6
20260509004532 63 236 0.0 1.0 0.00 0.00 0.00 33 1010.5
20260509003034 64 240 0.0 1.0 0.00 0.00 0.00 31 1010.3
20260509001531 66 245 0.0 5.0 0.00 0.00 0.00 29 1010.2
20260509000028 67 265 2.0 7.0 0.00 0.00 0.00 28 1010.1
20260508234526 67 229 1.0 9.0 0.00 0.00 0.00 28 1010.1
20260508233029 67 260 1.0 7.0 0.00 0.00 0.00 27 1010.0
20260508231521 68 172 3.0 8.0 0.00 0.00 0.00 27 1009.9
20260508230020 68 229 2.0 8.0 0.00 0.00 0.00 27 1009.9
20260508224518 69 159 2.0 7.0 0.00 0.00 0.00 26 1009.8
20260508223023 70 229 1.0 7.0 0.00 0.00 0.00 24 1009.5
20260508221514 71 205 1.0 6.0 0.00 0.00 0.00 22 1009.7
20260508220011 73 230 2.0 7.0 0.00 0.00 0.00 18 1009.7
20260508214506 73 213 1.0 8.0 0.00 0.00 0.00 18 1009.8
20260508213005 71 227 1.0 6.0 0.00 0.00 0.00 20 1009.8
20260508211502 70 282 1.0 5.0 0.00 0.00 0.00 21 1009.9
20260508210101 70 169 0.0 8.0 0.00 0.00 0.00 19 1009.8
20260508204556 71 219 4.0 10.0 0.00 0.00 0.00 18 1009.9
20260508203057 71 209 3.0 12.0 0.00 0.00 0.00 18 1010.0
20260508201551 71 251 2.0 8.0 0.00 0.00 0.00 21 1010.1
20260508200059 72 237 4.0 9.0 0.00 0.00 0.00 17 1010.3
20260508194545 72 256 1.0 12.0 0.00 0.00 0.00 18 1010.4
20260508193044 72 292 2.0 6.0 0.00 0.00 0.00 18 1010.8
20260508191548 73 304 2.0 7.0 0.00 0.00 0.00 17 1011.1
20260508190036 71 257 3.0 11.0 0.00 0.00 0.00 18 1011.2
20260508184533 71 278 1.0 8.0 0.00 0.00 0.00 19 1011.5
20260508183031 70 281 5.0 15.0 0.00 0.00 0.00 21 1011.8
20260508181527 70 257 3.0 11.0 0.00 0.00 0.00 20 1011.9
20260508180024 69 221 3.0 13.0 0.00 0.00 0.00 20 1011.9
20260508174528 69 283 6.0 10.0 0.00 0.00 0.00 21 1012.2
20260508173018 69 256 4.0 11.0 0.00 0.00 0.00 24 1012.2
20260508171547 67 295 3.0 12.0 0.00 0.00 0.00 23 1012.5
20260508170017 68 281 5.0 15.0 0.00 0.00 0.00 22 1012.7
20260508164511 68 323 7.0 14.0 0.00 0.00 0.00 22 1012.8
20260508163007 67 248 1.0 10.0 0.00 0.00 0.00 23 1013.1
20260508161505 67 244 5.0 11.0 0.00 0.00 0.00 24 1013.4